| time (UTC) | temp F | wind direction | speed knots | gust knots | rain 1hr in | rain 24hr in | rain mn in | humidity % | barometer mb |
| 20260507072602 | 48 | 324 | 2.6 | 4.3 | 0.00 | 0.02 | 0.02 | 97 | 1009.1 |
| 20260507072059 | 48 | 306 | 0.0 | 4.3 | 0.00 | 0.02 | 0.02 | 97 | 1008.8 |
| 20260507071556 | 49 | 275 | 0.0 | 4.3 | 0.00 | 0.02 | 0.02 | 97 | 1009.0 |
| 20260507071052 | 49 | 60 | 0.0 | 4.3 | 0.05 | 0.02 | 0.02 | 96 | 1008.8 |
| 20260507070549 | 49 | 316 | 0.0 | 3.5 | 0.07 | 0.02 | 0.02 | 96 | 1008.9 |
| 20260507070046 | 49 | 299 | 0.0 | 4.3 | 0.05 | 0.01 | 0.01 | 95 | 1008.8 |
| 20260507065543 | 49 | 288 | 4.3 | 6.1 | 0.00 | 0.00 | 0.00 | 95 | 1008.5 |
| 20260507065040 | 49 | 299 | 4.3 | 7.8 | 0.00 | 0.00 | 0.00 | 95 | 1008.4 |
| 20260507064538 | 49 | 320 | 7.8 | 8.7 | 0.00 | 0.00 | 0.00 | 95 | 1008.5 |
| 20260507064036 | 49 | 316 | 6.1 | 6.1 | 0.00 | 0.00 | 0.00 | 94 | 1008.1 |
| 20260507063533 | 49 | 311 | 4.3 | 6.1 | 0.00 | 0.00 | 0.00 | 94 | 1008.1 |
| 20260507063030 | 49 | 356 | 0.0 | 5.2 | 0.00 | 0.00 | 0.00 | 94 | 1008.0 |
| 20260507062527 | 49 | 268 | 0.0 | 4.3 | 0.00 | 0.00 | 0.00 | 94 | 1008.0 |
| 20260507062025 | 49 | 353 | 0.0 | 4.3 | 0.00 | 0.00 | 0.00 | 94 | 1007.9 |
| 20260507061522 | 49 | 37 | 1.7 | 3.5 | 0.00 | 0.00 | 0.00 | 94 | 1008.2 |
| 20260507061020 | 49 | 318 | 1.7 | 4.3 | 0.00 | 0.00 | 0.00 | 94 | 1008.4 |
| 20260507060518 | 49 | 293 | 2.6 | 3.5 | 0.00 | 0.00 | 0.00 | 94 | 1008.3 |
| 20260507060014 | 49 | 321 | 5.2 | 5.2 | 0.00 | 0.00 | 0.00 | 94 | 1008.6 |
| 20260507055509 | 50 | 297 | 5.2 | 6.1 | 0.00 | 0.00 | 0.00 | 95 | 1008.6 |
| 20260507055006 | 50 | 314 | 4.3 | 5.2 | 0.00 | 0.00 | 0.00 | 94 | 1008.5 |
| 20260507054501 | 50 | 314 | 2.6 | 4.3 | 0.00 | 0.00 | 0.00 | 94 | 1008.6 |
| 20260507053959 | 50 | 350 | 3.5 | 4.3 | 0.00 | 0.00 | 0.00 | 94 | 1008.5 |
| 20260507053457 | 49 | 327 | 0.0 | 3.5 | 0.00 | 0.00 | 0.00 | 94 | 1008.6 |
| 20260507052955 | 50 | 319 | 0.0 | 6.1 | 0.00 | 0.00 | 0.00 | 94 | 1008.4 |
| 20260507052452 | 50 | 318 | 5.2 | 5.2 | 0.00 | 0.00 | 0.00 | 95 | 1008.8 |
| 20260507051949 | 50 | 330 | 1.7 | 5.2 | 0.00 | 0.00 | 0.00 | 95 | 1008.7 |
| 20260507051447 | 50 | 350 | 0.0 | 3.5 | 0.00 | 0.00 | 0.00 | 95 | 1008.8 |
| 20260507050943 | 50 | 311 | 5.2 | 5.2 | 0.00 | 0.00 | 0.00 | 96 | 1008.8 |
| 20260507050440 | 50 | 306 | 4.3 | 6.1 | 0.00 | 0.00 | 0.00 | 96 | 1009.0 |
| 20260507045937 | 50 | 286 | 0.0 | 5.2 | 0.00 | 0.00 | 0.00 | 96 | 1008.9 |
| 20260507045433 | 50 | 337 | 0.0 | 7.0 | 0.00 | 0.00 | 0.00 | 97 | 1008.7 |
| 20260507044930 | 50 | 276 | 6.1 | 7.0 | 0.00 | 0.00 | 0.00 | 97 | 1008.6 |
| 20260507044427 | 50 | 307 | 4.3 | 4.3 | 0.00 | 0.00 | 0.00 | 97 | 1008.7 |
| 20260507043923 | 50 | 318 | 4.3 | 6.1 | 0.00 | 0.00 | 0.00 | 97 | 1008.6 |
| 20260507043419 | 50 | 311 | 3.5 | 5.2 | 0.00 | 0.00 | 0.00 | 97 | 1008.7 |
| 20260507042916 | 50 | 332 | 3.5 | 5.2 | 0.00 | 0.00 | 0.00 | 97 | 1008.6 |
| 20260507042413 | 51 | 320 | 3.5 | 6.1 | 0.02 | 0.00 | 0.00 | 97 | 1008.8 |
| 20260507041908 | 51 | 297 | 3.5 | 7.8 | 0.02 | 0.00 | 0.00 | 97 | 1008.9 |
| 20260507041405 | 51 | 314 | 6.1 | 6.1 | 0.00 | 0.00 | 0.00 | 97 | 1008.7 |
| 20260507040903 | 51 | 300 | 6.1 | 8.7 | 0.00 | 0.00 | 0.00 | 97 | 1008.8 |
| 20260507040358 | 52 | 289 | 4.3 | 7.8 | 0.00 | 0.00 | 0.00 | 97 | 1008.7 |
| 20260507035854 | 52 | 338 | 5.2 | 10.4 | 0.00 | 0.22 | 0.22 | 97 | 1008.6 |
| 20260507035350 | 52 | 298 | 7.8 | 8.7 | 0.00 | 0.22 | 0.22 | 97 | 1008.7 |
| 20260507034848 | 53 | 286 | 5.2 | 10.4 | 0.00 | 0.22 | 0.22 | 98 | 1008.9 |
| 20260507034345 | 53 | 310 | 11.3 | 11.3 | 0.00 | 0.22 | 0.22 | 98 | 1008.8 |
| 20260507033843 | 53 | 320 | 7.0 | 7.8 | 0.00 | 0.22 | 0.22 | 98 | 1008.9 |
| 20260507033340 | 54 | 309 | 2.6 | 7.8 | 0.00 | 0.22 | 0.22 | 98 | 1008.9 |
| 20260507032837 | 54 | 330 | 3.5 | 6.1 | 0.00 | 0.22 | 0.22 | 98 | 1008.7 |
| 20260507032333 | 54 | 308 | 4.3 | 5.2 | 0.00 | 0.22 | 0.22 | 98 | 1008.9 |
| 20260507031830 | 54 | 308 | 2.6 | 4.3 | 0.00 | 0.22 | 0.22 | 98 | 1008.5 |
| 20260507031327 | 54 | 265 | 0.0 | 4.3 | 0.00 | 0.22 | 0.22 | 98 | 1008.6 |
| 20260507030823 | 54 | 123 | 1.7 | 8.7 | 0.02 | 0.22 | 0.22 | 98 | 1008.3 |
| 20260507030321 | 54 | 306 | 2.6 | 6.1 | 0.02 | 0.22 | 0.22 | 98 | 1008.5 |
| 20260507025818 | 54 | 318 | 3.5 | 7.8 | 0.00 | 0.22 | 0.22 | 98 | 1008.5 |
| 20260507025315 | 55 | 304 | 6.1 | 7.8 | 0.00 | 0.22 | 0.22 | 98 | 1008.3 |
| 20260507024813 | 55 | 288 | 4.3 | 6.1 | 0.00 | 0.22 | 0.22 | 99 | 1008.4 |
| 20260507024310 | 56 | 305 | 5.2 | 10.4 | 0.00 | 0.22 | 0.22 | 99 | 1008.3 |
| 20260507023806 | 56 | 286 | 3.5 | 5.2 | 0.00 | 0.22 | 0.22 | 99 | 1008.3 |
| 20260507023302 | 56 | 313 | 4.3 | 5.2 | 0.00 | 0.22 | 0.22 | 99 | 1008.4 |
| 20260507022800 | 57 | 311 | 5.2 | 9.6 | 0.00 | 0.22 | 0.22 | 99 | 1008.3 |
| 20260507022256 | 57 | 299 | 4.3 | 7.8 | 0.00 | 0.22 | 0.22 | 99 | 1008.3 |
| 20260507021752 | 58 | 269 | 0.0 | 7.8 | 0.00 | 0.22 | 0.22 | 99 | 1007.9 |
| 20260507021248 | 57 | 268 | 2.6 | 4.3 | 0.00 | 0.22 | 0.22 | 99 | 1008.0 |
| 20260507020746 | 57 | 208 | 3.5 | 4.3 | 0.00 | 0.22 | 0.22 | 99 | 1007.7 |
| 20260507020242 | 57 | 245 | 3.5 | 4.3 | 0.00 | 0.22 | 0.22 | 99 | 1007.7 |
| 20260507015740 | 57 | 242 | 1.7 | 3.5 | 0.00 | 0.22 | 0.22 | 99 | 1007.8 |
| 20260507015237 | 57 | 246 | 3.5 | 4.3 | 0.00 | 0.22 | 0.22 | 99 | 1007.8 |
| 20260507014734 | 57 | 237 | 0.0 | 7.8 | 0.00 | 0.22 | 0.22 | 99 | 1008.0 |
| 20260507014230 | 57 | 253 | 3.5 | 7.0 | 0.00 | 0.22 | 0.22 | 99 | 1007.8 |
| 20260507013727 | 57 | 221 | 0.0 | 6.1 | 0.00 | 0.22 | 0.22 | 99 | 1007.9 |
| 20260507013224 | 57 | 271 | 0.0 | 4.3 | 0.00 | 0.22 | 0.22 | 99 | 1008.0 |
| 20260507012721 | 57 | 262 | 4.3 | 7.0 | 0.00 | 0.22 | 0.22 | 99 | 1007.7 |
| 20260507012217 | 57 | 249 | 5.2 | 5.2 | 0.00 | 0.22 | 0.22 | 99 | 1007.9 |
| 20260507011715 | 57 | 277 | 6.1 | 6.1 | 0.00 | 0.22 | 0.22 | 99 | 1007.9 |
| 20260507011211 | 57 | 213 | 4.3 | 8.7 | 0.00 | 0.22 | 0.22 | 99 | 1007.9 |
| 20260507010711 | 57 | 260 | 4.3 | 12.2 | 0.00 | 0.22 | 0.22 | 99 | 1007.3 |
| 20260507010207 | 57 | 192 | 0.0 | 6.1 | 0.00 | 0.22 | 0.22 | 99 | 1007.5 |
| 20260507005705 | 57 | 241 | 3.5 | 9.6 | 0.00 | 0.22 | 0.22 | 99 | 1007.8 |
| 20260507005201 | 57 | 261 | 1.7 | 6.1 | 0.00 | 0.22 | 0.22 | 99 | 1007.6 |
| 20260507004657 | 57 | 235 | 2.6 | 5.2 | 0.00 | 0.22 | 0.22 | 99 | 1007.9 |
| 20260507004155 | 57 | 216 | 3.5 | 4.3 | 0.00 | 0.22 | 0.22 | 99 | 1008.0 |
| 20260507003651 | 57 | 261 | 5.2 | 12.2 | 0.00 | 0.22 | 0.22 | 99 | 1007.9 |
| 20260507003151 | 57 | 240 | 4.3 | 7.0 | 0.02 | 0.22 | 0.22 | 99 | 1007.8 |
| 20260507002648 | 57 | 223 | 2.6 | 9.6 | 0.02 | 0.22 | 0.22 | 99 | 1007.9 |
| 20260507002144 | 57 | 293 | 5.2 | 7.0 | 0.00 | 0.21 | 0.21 | 99 | 1007.9 |
| 20260507001641 | 57 | 222 | 3.5 | 7.0 | 0.00 | 0.21 | 0.21 | 99 | 1007.9 |
| 20260507001138 | 57 | 262 | 2.6 | 5.2 | 0.00 | 0.21 | 0.21 | 99 | 1007.9 |
| 20260507000634 | 57 | 250 | 3.5 | 4.3 | 0.00 | 0.21 | 0.21 | 99 | 1007.7 |
| 20260507000130 | 57 | 259 | 8.7 | 8.7 | 0.00 | 0.21 | 0.21 | 98 | 1007.7 |
| 20260506235628 | 57 | 256 | 5.2 | 7.0 | 0.00 | 0.21 | 0.21 | 98 | 1007.5 |
| 20260506235127 | 57 | 274 | 4.3 | 6.1 | 0.00 | 0.21 | 0.21 | 98 | 1007.8 |
| 20260506234625 | 57 | 241 | 0.0 | 7.8 | 0.00 | 0.21 | 0.21 | 98 | 1007.7 |
| 20260506234122 | 57 | 268 | 1.7 | 7.8 | 0.00 | 0.21 | 0.21 | 98 | 1007.5 |
| 20260506233619 | 57 | 211 | 7.8 | 7.8 | 0.00 | 0.21 | 0.21 | 98 | 1007.3 |
| 20260506233116 | 57 | 236 | 4.3 | 8.7 | 0.00 | 0.21 | 0.21 | 98 | 1007.6 |
| 20260506232612 | 57 | 242 | 6.1 | 7.8 | 0.00 | 0.21 | 0.21 | 98 | 1007.5 |
| 20260506232108 | 57 | 267 | 5.2 | 6.1 | 0.00 | 0.21 | 0.21 | 98 | 1007.1 |
| 20260506231605 | 57 | 129 | 5.2 | 9.6 | 0.00 | 0.21 | 0.21 | 98 | 1007.5 |
| 20260506231103 | 57 | 225 | 6.1 | 7.8 | 0.00 | 0.21 | 0.21 | 98 | 1007.3 |
| 20260506230600 | 57 | 229 | 6.1 | 7.8 | 0.00 | 0.21 | 0.21 | 98 | 1007.5 |
| 20260506230057 | 57 | 208 | 6.1 | 7.8 | 0.00 | 0.21 | 0.21 | 98 | 1007.3 |
| 20260506225553 | 57 | 234 | 3.5 | 7.8 | 0.02 | 0.21 | 0.21 | 98 | 1007.0 |
| 20260506225050 | 57 | 276 | 3.5 | 9.6 | 0.05 | 0.21 | 0.21 | 98 | 1006.9 |
| 20260506224547 | 57 | 186 | 0.0 | 7.0 | 0.02 | 0.21 | 0.21 | 98 | 1007.0 |
| 20260506224043 | 57 | 286 | 4.3 | 10.4 | 0.00 | 0.20 | 0.20 | 98 | 1007.2 |
| 20260506223539 | 57 | 231 | 5.2 | 7.8 | 0.02 | 0.20 | 0.20 | 98 | 1007.1 |
| 20260506223036 | 57 | 241 | 5.2 | 11.3 | 0.07 | 0.20 | 0.20 | 98 | 1007.1 |
| 20260506222533 | 57 | 290 | 1.7 | 5.2 | 0.12 | 0.20 | 0.20 | 98 | 1007.1 |
| 20260506222029 | 57 | 242 | 5.2 | 7.0 | 0.14 | 0.19 | 0.19 | 98 | 1007.2 |
| 20260506221527 | 57 | 278 | 5.2 | 7.0 | 0.07 | 0.18 | 0.18 | 98 | 1007.3 |
| 20260506221025 | 57 | 275 | 5.2 | 10.4 | 0.02 | 0.17 | 0.17 | 98 | 1007.5 |
| 20260506220520 | 57 | 280 | 4.3 | 11.3 | 0.02 | 0.17 | 0.17 | 98 | 1007.6 |
| 20260506220016 | 57 | 238 | 4.3 | 7.8 | 0.00 | 0.17 | 0.17 | 98 | 1007.1 |
| 20260506215513 | 57 | 231 | 7.0 | 7.0 | 0.02 | 0.17 | 0.17 | 98 | 1007.3 |
| 20260506215009 | 57 | 260 | 8.7 | 8.7 | 0.02 | 0.17 | 0.17 | 98 | 1007.3 |
| 20260506214506 | 57 | 269 | 0.0 | 5.2 | 0.00 | 0.16 | 0.16 | 98 | 1007.5 |
| 20260506214003 | 57 | 276 | 7.0 | 9.6 | 0.00 | 0.16 | 0.16 | 97 | 1007.6 |
| 20260506213501 | 57 | 223 | 5.2 | 9.6 | 0.02 | 0.16 | 0.16 | 97 | 1007.6 |
| 20260506212958 | 57 | 195 | 4.3 | 12.2 | 0.02 | 0.16 | 0.16 | 97 | 1007.7 |
| 20260506212454 | 57 | 257 | 0.0 | 6.1 | 0.02 | 0.16 | 0.16 | 97 | 1007.7 |
| 20260506211949 | 57 | 252 | 4.3 | 8.7 | 0.07 | 0.16 | 0.16 | 97 | 1007.6 |
| 20260506211445 | 57 | 242 | 2.6 | 9.6 | 0.05 | 0.15 | 0.15 | 97 | 1007.8 |
| 20260506210943 | 57 | 187 | 4.3 | 5.2 | 0.05 | 0.15 | 0.15 | 97 | 1007.8 |
| 20260506210439 | 57 | 289 | 2.6 | 10.4 | 0.07 | 0.14 | 0.14 | 97 | 1007.9 |
| 20260506205936 | 57 | 138 | 1.7 | 9.6 | 0.07 | 0.14 | 0.14 | 97 | 1008.1 |
| 20260506205432 | 57 | 182 | 4.3 | 9.6 | 0.02 | 0.13 | 0.13 | 97 | 1008.0 |
| 20260506204928 | 58 | 135 | 6.1 | 6.1 | 0.02 | 0.13 | 0.13 | 97 | 1007.9 |
| 20260506204427 | 57 | 287 | 2.6 | 7.0 | 0.02 | 0.13 | 0.13 | 97 | 1008.0 |
| 20260506203924 | 58 | 193 | 0.0 | 5.2 | 0.00 | 0.12 | 0.12 | 97 | 1008.2 |
| 20260506203420 | 57 | 241 | 1.7 | 6.1 | 0.00 | 0.12 | 0.12 | 97 | 1008.0 |
| 20260506202918 | 57 | 195 | 0.0 | 6.1 | 0.00 | 0.12 | 0.12 | 97 | 1008.1 |
| 20260506202415 | 57 | 258 | 5.2 | 5.2 | 0.00 | 0.12 | 0.12 | 97 | 1008.1 |
| 20260506201911 | 57 | 137 | 4.3 | 7.8 | 0.00 | 0.12 | 0.12 | 96 | 1008.3 |
| 20260506201409 | 57 | 180 | 6.1 | 7.0 | 0.00 | 0.12 | 0.12 | 96 | 1008.1 |
| 20260506200905 | 57 | 179 | 0.0 | 12.2 | 0.00 | 0.12 | 0.12 | 96 | 1008.2 |
| 20260506200401 | 57 | 235 | 1.7 | 8.7 | 0.02 | 0.12 | 0.12 | 96 | 1008.3 |
| 20260506195858 | 57 | 261 | 3.5 | 13.9 | 0.02 | 0.12 | 0.12 | 96 | 1008.2 |
| 20260506195355 | 57 | 275 | 6.1 | 8.7 | 0.00 | 0.12 | 0.12 | 96 | 1008.6 |
| 20260506194851 | 57 | 116 | 0.0 | 8.7 | 0.00 | 0.12 | 0.12 | 96 | 1008.5 |
| 20260506194349 | 57 | 74 | 3.5 | 8.7 | 0.00 | 0.12 | 0.12 | 96 | 1008.4 |
| 20260506193846 | 57 | 223 | 6.1 | 13.0 | 0.00 | 0.12 | 0.12 | 96 | 1008.7 |
| 20260506193343 | 57 | 243 | 1.7 | 9.6 | 0.00 | 0.12 | 0.12 | 96 | 1008.4 |
| 20260506192839 | 57 | 264 | 4.3 | 18.2 | 0.02 | 0.12 | 0.12 | 96 | 1008.5 |
| 20260506192336 | 57 | 89 | 0.0 | 11.3 | 0.02 | 0.12 | 0.12 | 96 | 1008.4 |
| 20260506191833 | 57 | 205 | 4.3 | 17.4 | 0.02 | 0.11 | 0.11 | 96 | 1008.7 |
| 20260506191329 | 57 | 175 | 6.1 | 10.4 | 0.05 | 0.11 | 0.11 | 96 | 1008.6 |
| 20260506190826 | 57 | 209 | 6.1 | 11.3 | 0.05 | 0.11 | 0.11 | 96 | 1008.9 |
| 20260506190322 | 57 | 214 | 5.2 | 13.9 | 0.05 | 0.11 | 0.11 | 95 | 1008.8 |
| 20260506185820 | 57 | 227 | 4.3 | 16.5 | 0.07 | 0.10 | 0.10 | 95 | 1008.8 |
| 20260506185316 | 57 | 223 | 4.3 | 15.6 | 0.07 | 0.10 | 0.10 | 95 | 1008.7 |
| 20260506184814 | 58 | 282 | 7.0 | 16.5 | 0.05 | 0.09 | 0.09 | 95 | 1008.7 |
| 20260506184311 | 58 | 172 | 7.0 | 16.5 | 0.05 | 0.09 | 0.09 | 95 | 1008.9 |
| 20260506183808 | 58 | 190 | 6.1 | 7.8 | 0.05 | 0.08 | 0.08 | 95 | 1008.7 |
| 20260506183303 | 58 | 142 | 3.5 | 10.4 | 0.07 | 0.08 | 0.08 | 95 | 1008.6 |
| 20260506182800 | 59 | 127 | 2.6 | 7.8 | 0.09 | 0.07 | 0.07 | 95 | 1008.6 |
| 20260506182257 | 59 | 192 | 1.7 | 8.7 | 0.12 | 0.07 | 0.07 | 94 | 1008.9 |
| 20260506181755 | 59 | 185 | 1.7 | 6.1 | 0.12 | 0.06 | 0.06 | 94 | 1009.2 |
| 20260506181253 | 59 | 165 | 0.0 | 7.0 | 0.09 | 0.04 | 0.04 | 93 | 1009.2 |
| 20260506180750 | 60 | 150 | 1.7 | 9.6 | 0.07 | 0.03 | 0.03 | 92 | 1009.2 |
| 20260506180245 | 60 | 247 | 2.6 | 5.2 | 0.07 | 0.03 | 0.03 | 91 | 1009.6 |
| 20260506175742 | 60 | 212 | 9.6 | 9.6 | 0.05 | 0.02 | 0.02 | 90 | 1009.6 |
| 20260506175239 | 60 | 238 | 5.2 | 13.0 | 0.05 | 0.02 | 0.02 | 89 | 1009.7 |
| 20260506174737 | 60 | 191 | 5.2 | 5.2 | 0.05 | 0.01 | 0.01 | 88 | 1009.4 |
| 20260506174233 | 61 | 269 | 3.5 | 10.4 | 0.05 | 0.01 | 0.01 | 86 | 1009.7 |
| 20260506173732 | 62 | 232 | 7.0 | 11.3 | 0.02 | 0.00 | 0.00 | 84 | 1009.8 |
| 20260506173228 | 63 | 261 | 7.0 | 7.0 | 0.00 | 0.00 | 0.00 | 81 | 1010.0 |
| 20260506172725 | 64 | 2 | 4.3 | 15.6 | 0.00 | 0.00 | 0.00 | 80 | 1009.9 |
| 20260506172221 | 65 | 269 | 0.0 | 6.1 | 0.00 | 0.00 | 0.00 | 76 | 1009.7 |
| 20260506171719 | 66 | 190 | 5.2 | 7.8 | 0.00 | 0.00 | 0.00 | 72 | 1009.7 |
| 20260506171216 | 66 | 227 | 7.0 | 7.0 | 0.00 | 0.00 | 0.00 | 71 | 1009.9 |
| 20260506170713 | 67 | 283 | 4.3 | 14.8 | 0.00 | 0.00 | 0.00 | 68 | 1009.6 |
| 20260506170210 | 67 | 267 | 14.8 | 16.5 | 0.00 | 0.00 | 0.00 | 67 | 1009.2 |
| 20260506165709 | 67 | 283 | 11.3 | 16.5 | 0.00 | 0.00 | 0.00 | 67 | 1009.4 |
| 20260506165205 | 67 | 292 | 5.2 | 14.8 | 0.00 | 0.00 | 0.00 | 67 | 1009.3 |
| 20260506164702 | 68 | 34 | 1.7 | 6.1 | 0.00 | 0.00 | 0.00 | 66 | 1009.5 |
| 20260506164159 | 68 | 282 | 9.6 | 11.3 | 0.00 | 0.00 | 0.00 | 66 | 1009.4 |
| 20260506163655 | 68 | 247 | 9.6 | 11.3 | 0.00 | 0.00 | 0.00 | 66 | 1009.5 |
| 20260506163151 | 68 | 259 | 12.2 | 18.2 | 0.00 | 0.00 | 0.00 | 65 | 1009.7 |
| 20260506162647 | 69 | 233 | 6.1 | 14.8 | 0.00 | 0.00 | 0.00 | 64 | 1009.7 |
| 20260506162144 | 69 | 239 | 5.2 | 18.2 | 0.00 | 0.00 | 0.00 | 64 | 1009.7 |
| 20260506161642 | 68 | 255 | 6.1 | 10.4 | 0.00 | 0.00 | 0.00 | 64 | 1009.9 |
| 20260506161138 | 68 | 351 | 12.2 | 20.0 | 0.00 | 0.00 | 0.00 | 64 | 1009.8 |
| 20260506160636 | 68 | 318 | 8.7 | 20.0 | 0.00 | 0.00 | 0.00 | 64 | 1009.7 |
| 20260506160133 | 68 | 300 | 8.7 | 10.4 | 0.00 | 0.00 | 0.00 | 64 | 1010.0 |
| 20260506155632 | 68 | 234 | 9.6 | 10.4 | 0.00 | 0.00 | 0.00 | 64 | 1010.0 |
| 20260506155128 | 69 | 274 | 6.1 | 11.3 | 0.00 | 0.00 | 0.00 | 64 | 1010.1 |
| 20260506153230 | 69 | 214 | 6.1 | 19.1 | 0.00 | 0.00 | 0.00 | 64 | 1010.0 |
| 20260506152727 | 69 | 308 | 8.7 | 11.3 | 0.00 | 0.00 | 0.00 | 63 | 1010.2 |
| 20260506152224 | 69 | 275 | 2.6 | 10.4 | 0.00 | 0.00 | 0.00 | 65 | 1010.0 |
| 20260506151724 | 69 | 278 | 6.1 | 6.1 | 0.00 | 0.00 | 0.00 | 65 | 1010.5 |
| 20260506151220 | 68 | 277 | 6.1 | 7.8 | 0.00 | 0.00 | 0.00 | 67 | 1010.5 |
| 20260506150716 | 67 | 221 | 6.1 | 16.5 | 0.00 | 0.00 | 0.00 | 67 | 1010.3 |
| 20260506150213 | 67 | 260 | 4.3 | 7.8 | 0.00 | 0.00 | 0.00 | 68 | 1010.6 |
| 20260506145710 | 67 | 311 | 4.3 | 10.4 | 0.00 | 0.00 | 0.00 | 68 | 1010.8 |
| 20260506145207 | 67 | 54 | 3.5 | 25.2 | 0.00 | 0.00 | 0.00 | 67 | 1010.2 |
| 20260506144704 | 67 | 244 | 12.2 | 20.0 | 0.00 | 0.00 | 0.00 | 68 | 1010.9 |
| 20260506144201 | 67 | 304 | 6.1 | 12.2 | 0.00 | 0.00 | 0.00 | 68 | 1010.7 |
| 20260506143659 | 66 | 311 | 5.2 | 11.3 | 0.00 | 0.00 | 0.00 | 69 | 1010.9 |
| 20260506143156 | 66 | 257 | 3.5 | 14.8 | 0.00 | 0.00 | 0.00 | 70 | 1010.8 |
| 20260506142655 | 66 | 272 | 7.8 | 15.6 | 0.00 | 0.00 | 0.00 | 70 | 1010.9 |
| 20260506142152 | 66 | 252 | 3.5 | 7.8 | 0.00 | 0.00 | 0.00 | 70 | 1010.9 |
| 20260506141650 | 66 | 286 | 4.3 | 11.3 | 0.00 | 0.00 | 0.00 | 71 | 1010.9 |
| 20260506141148 | 66 | 29 | 3.5 | 7.8 | 0.00 | 0.00 | 0.00 | 71 | 1010.8 |
| 20260506140645 | 66 | 265 | 3.5 | 8.7 | 0.00 | 0.00 | 0.00 | 71 | 1010.8 |
| 20260506140142 | 66 | 273 | 6.1 | 7.0 | 0.00 | 0.00 | 0.00 | 72 | 1010.7 |
| 20260506135639 | 66 | 285 | 2.6 | 10.4 | 0.00 | 0.00 | 0.00 | 72 | 1010.6 |
| 20260506135135 | 66 | 269 | 5.2 | 9.6 | 0.00 | 0.00 | 0.00 | 72 | 1010.5 |
| 20260506134632 | 65 | 276 | 3.5 | 8.7 | 0.00 | 0.00 | 0.00 | 73 | 1010.3 |
| 20260506134127 | 65 | 272 | 0.0 | 17.4 | 0.00 | 0.00 | 0.00 | 74 | 1010.7 |
| 20260506133625 | 65 | 242 | 8.7 | 13.9 | 0.00 | 0.00 | 0.00 | 73 | 1010.7 |
| 20260506133122 | 65 | 274 | 7.8 | 7.8 | 0.00 | 0.00 | 0.00 | 74 | 1010.6 |
| 20260506132619 | 64 | 237 | 4.3 | 7.8 | 0.00 | 0.00 | 0.00 | 75 | 1010.8 |
| 20260506132116 | 64 | 282 | 2.6 | 11.3 | 0.00 | 0.00 | 0.00 | 76 | 1010.8 |
| 20260506131614 | 64 | 284 | 5.2 | 6.1 | 0.00 | 0.00 | 0.00 | 77 | 1010.8 |
| 20260506131110 | 63 | 223 | 4.3 | 13.9 | 0.00 | 0.00 | 0.00 | 78 | 1010.7 |
| 20260506130607 | 63 | 251 | 4.3 | 10.4 | 0.00 | 0.00 | 0.00 | 78 | 1011.2 |
| 20260506130105 | 63 | 230 | 6.1 | 17.4 | 0.00 | 0.00 | 0.00 | 79 | 1011.3 |
| 20260506125603 | 62 | 275 | 6.1 | 8.7 | 0.00 | 0.00 | 0.00 | 80 | 1011.2 |
| 20260506125100 | 62 | 250 | 6.1 | 13.9 | 0.00 | 0.00 | 0.00 | 79 | 1011.2 |
| 20260506124557 | 62 | 268 | 4.3 | 7.0 | 0.00 | 0.00 | 0.00 | 80 | 1011.3 |
| 20260506124055 | 61 | 246 | 8.7 | 13.9 | 0.00 | 0.00 | 0.00 | 82 | 1011.2 |
| 20260506123553 | 61 | 250 | 5.2 | 13.0 | 0.00 | 0.00 | 0.00 | 82 | 1011.3 |
| 20260506123051 | 61 | 180 | 2.6 | 7.8 | 0.00 | 0.00 | 0.00 | 82 | 1011.1 |
| 20260506122547 | 61 | 255 | 1.7 | 7.0 | 0.00 | 0.00 | 0.00 | 82 | 1011.3 |
| 20260506122046 | 61 | 197 | 7.8 | 10.4 | 0.00 | 0.00 | 0.00 | 81 | 1011.5 |
| 20260506121543 | 61 | 218 | 7.0 | 13.0 | 0.00 | 0.00 | 0.00 | 81 | 1011.3 |
| 20260506121038 | 61 | 231 | 6.1 | 10.4 | 0.00 | 0.00 | 0.00 | 81 | 1011.4 |
| 20260506120537 | 60 | 241 | 4.3 | 8.7 | 0.00 | 0.00 | 0.00 | 83 | 1011.4 |
| 20260506120034 | 60 | 198 | 5.2 | 9.6 | 0.00 | 0.00 | 0.00 | 84 | 1011.6 |
| 20260506115532 | 60 | 249 | 7.8 | 8.7 | 0.00 | 0.00 | 0.00 | 83 | 1011.3 |
| 20260506115030 | 60 | 225 | 3.5 | 10.4 | 0.00 | 0.00 | 0.00 | 83 | 1011.4 |
| 20260506114527 | 60 | 174 | 3.5 | 10.4 | 0.00 | 0.00 | 0.00 | 83 | 1011.2 |
| 20260506114026 | 59 | 254 | 1.7 | 15.6 | 0.00 | 0.00 | 0.00 | 84 | 1011.1 |
| 20260506113523 | 59 | 180 | 12.2 | 13.0 | 0.00 | 0.00 | 0.00 | 85 | 1011.2 |
| 20260506113020 | 59 | 252 | 3.5 | 9.6 | 0.00 | 0.00 | 0.00 | 85 | 1011.4 |
| 20260506112516 | 59 | 305 | 6.1 | 6.1 | 0.00 | 0.00 | 0.00 | 86 | 1011.7 |
| 20260506112014 | 58 | 325 | 2.6 | 9.6 | 0.00 | 0.00 | 0.00 | 87 | 1011.4 |
| 20260506111512 | 58 | 233 | 2.6 | 10.4 | 0.00 | 0.00 | 0.00 | 87 | 1011.3 |
| 20260506111009 | 58 | 321 | 4.3 | 6.1 | 0.00 | 0.00 | 0.00 | 87 | 1011.5 |
| 20260506110507 | 58 | 241 | 5.2 | 14.8 | 0.00 | 0.00 | 0.00 | 87 | 1011.7 |
| 20260506110004 | 58 | 231 | 5.2 | 9.6 | 0.00 | 0.00 | 0.00 | 86 | 1012.0 |
| 20260506105459 | 58 | 212 | 4.3 | 9.6 | 0.00 | 0.00 | 0.00 | 86 | 1012.1 |
| 20260506104957 | 58 | 222 | 5.2 | 14.8 | 0.00 | 0.00 | 0.00 | 87 | 1011.5 |
| 20260506104455 | 58 | 245 | 4.3 | 6.1 | 0.00 | 0.00 | 0.00 | 87 | 1011.5 |
| 20260506103953 | 57 | 225 | 12.2 | 21.7 | 0.00 | 0.00 | 0.00 | 87 | 1011.5 |
| 20260506103449 | 57 | 242 | 0.0 | 7.0 | 0.00 | 0.00 | 0.00 | 88 | 1011.5 |
| 20260506102946 | 57 | 269 | 2.6 | 10.4 | 0.00 | 0.00 | 0.00 | 88 | 1011.3 |
| 20260506102444 | 57 | 207 | 6.1 | 12.2 | 0.00 | 0.00 | 0.00 | 88 | 1011.5 |
| 20260506101941 | 57 | 232 | 5.2 | 12.2 | 0.00 | 0.00 | 0.00 | 88 | 1011.3 |
| 20260506101438 | 57 | 293 | 6.1 | 17.4 | 0.00 | 0.00 | 0.00 | 87 | 1011.4 |
| 20260506100935 | 57 | 290 | 4.3 | 20.0 | 0.00 | 0.00 | 0.00 | 87 | 1011.3 |
| 20260506100433 | 57 | 247 | 6.1 | 20.9 | 0.00 | 0.00 | 0.00 | 87 | 1011.3 |
| 20260506095931 | 57 | 227 | 11.3 | 15.6 | 0.00 | 0.00 | 0.00 | 86 | 1011.4 |
| 20260506095429 | 57 | 299 | 5.2 | 8.7 | 0.00 | 0.00 | 0.00 | 87 | 1011.3 |
| 20260506094925 | 57 | 166 | 7.0 | 9.6 | 0.00 | 0.00 | 0.00 | 87 | 1011.2 |
| 20260506094424 | 57 | 278 | 3.5 | 10.4 | 0.00 | 0.00 | 0.00 | 86 | 1011.0 |
| 20260506093921 | 57 | 85 | 11.3 | 11.3 | 0.00 | 0.00 | 0.00 | 86 | 1011.2 |
| 20260506093419 | 57 | 268 | 3.5 | 9.6 | 0.00 | 0.00 | 0.00 | 86 | 1011.3 |
| 20260506092917 | 57 | 185 | 2.6 | 7.0 | 0.00 | 0.00 | 0.00 | 86 | 1011.3 |
| 20260506092415 | 58 | 184 | 4.3 | 13.0 | 0.00 | 0.00 | 0.00 | 85 | 1011.6 |
| 20260506091911 | 58 | 8 | 0.0 | 11.3 | 0.00 | 0.00 | 0.00 | 85 | 1011.1 |
| 20260506091409 | 58 | 256 | 4.3 | 9.6 | 0.00 | 0.00 | 0.00 | 85 | 1011.0 |
| 20260506090906 | 58 | 241 | 3.5 | 13.9 | 0.00 | 0.00 | 0.00 | 84 | 1011.0 |
| 20260506090403 | 58 | 211 | 6.1 | 9.6 | 0.00 | 0.00 | 0.00 | 85 | 1011.4 |
| 20260506085900 | 58 | 228 | 8.7 | 8.7 | 0.00 | 0.00 | 0.00 | 84 | 1011.2 |
| 20260506085356 | 58 | 207 | 9.6 | 9.6 | 0.00 | 0.00 | 0.00 | 84 | 1011.4 |
| 20260506084853 | 58 | 220 | 5.2 | 15.6 | 0.00 | 0.00 | 0.00 | 84 | 1011.4 |
| 20260506084350 | 58 | 216 | 4.3 | 9.6 | 0.00 | 0.00 | 0.00 | 84 | 1011.5 |
| 20260506083846 | 58 | 239 | 4.3 | 9.6 | 0.00 | 0.00 | 0.00 | 84 | 1011.4 |
| 20260506083344 | 58 | 200 | 0.0 | 8.7 | 0.00 | 0.00 | 0.00 | 84 | 1011.4 |
| 20260506082841 | 58 | 210 | 4.3 | 11.3 | 0.00 | 0.00 | 0.00 | 84 | 1011.3 |
| 20260506082338 | 58 | 244 | 4.3 | 6.1 | 0.00 | 0.00 | 0.00 | 84 | 1011.3 |
| 20260506081833 | 58 | 137 | 1.7 | 13.0 | 0.00 | 0.00 | 0.00 | 84 | 1011.4 |
| 20260506081332 | 58 | 52 | 2.6 | 7.8 | 0.00 | 0.00 | 0.00 | 83 | 1011.4 |
| 20260506080829 | 58 | 244 | 7.8 | 7.8 | 0.00 | 0.00 | 0.00 | 83 | 1011.4 |
| 20260506080325 | 58 | 178 | 7.8 | 9.6 | 0.00 | 0.00 | 0.00 | 83 | 1011.3 |
| 20260506073310 | 58 | 165 | 6.1 | 11.3 | 0.00 | 0.00 | 0.00 | 82 | 1011.4 |